| time (UTC) | temp F | wind direction | speed MPH | gust MPH | rain 1hr in | rain 24hr in | rain mn in | humidity % | barometer mb |
| 20260506134419 | 53 | 0 | 0.0 | 1.0 | 0.00 | 0.01 | 0.00 | 92 | 1019.8 |
| 20260506133919 | 53 | 0 | 0.0 | 2.0 | 0.00 | 0.01 | 0.00 | 92 | 1020.0 |
| 20260506133438 | 53 | 118 | 1.0 | 2.0 | 0.00 | 0.01 | 0.00 | 92 | 1020.0 |
| 20260506132916 | 53 | 201 | 0.0 | 1.0 | 0.00 | 0.01 | 0.00 | 92 | 1019.8 |
| 20260506132420 | 53 | 183 | 1.0 | 2.0 | 0.00 | 0.01 | 0.00 | 92 | 1019.7 |
| 20260506131919 | 53 | 0 | 0.0 | 1.0 | 0.00 | 0.01 | 0.00 | 92 | 1019.7 |
| 20260506131417 | 53 | 0 | 0.0 | 0.0 | 0.00 | 0.01 | 0.00 | 92 | 1019.5 |
| 20260506130916 | 53 | 0 | 0.0 | 1.0 | 0.00 | 0.01 | 0.00 | 92 | 1019.6 |
| 20260506130419 | 53 | 0 | 0.0 | 2.0 | 0.00 | 0.01 | 0.00 | 92 | 1019.6 |
| 20260506125918 | 53 | 0 | 0.0 | 0.0 | 0.00 | 0.01 | 0.00 | 92 | 1019.6 |
| 20260506125417 | 53 | 0 | 0.0 | 1.0 | 0.00 | 0.01 | 0.00 | 92 | 1019.8 |
| 20260506124916 | 53 | 120 | 0.0 | 2.0 | 0.00 | 0.01 | 0.00 | 92 | 1019.4 |
| 20260506124440 | 53 | 0 | 0.0 | 0.0 | 0.00 | 0.01 | 0.00 | 92 | 1019.5 |
| 20260506123919 | 52 | 0 | 0.0 | 0.0 | 0.00 | 0.01 | 0.00 | 92 | 1019.3 |
| 20260506123438 | 52 | 0 | 0.0 | 0.0 | 0.00 | 0.01 | 0.00 | 91 | 1019.4 |
| 20260506122937 | 52 | 0 | 0.0 | 1.0 | 0.00 | 0.01 | 0.00 | 91 | 1019.5 |
| 20260506122420 | 52 | 0 | 0.0 | 1.0 | 0.00 | 0.01 | 0.00 | 91 | 1019.5 |
| 20260506121919 | 52 | 0 | 0.0 | 0.0 | 0.00 | 0.01 | 0.00 | 91 | 1019.4 |
| 20260506121418 | 52 | 0 | 0.0 | 0.0 | 0.00 | 0.01 | 0.00 | 91 | 1019.3 |
| 20260506120917 | 52 | 204 | 0.0 | 1.0 | 0.00 | 0.01 | 0.00 | 91 | 1019.2 |
| 20260506120420 | 52 | 0 | 0.0 | 1.0 | 0.00 | 0.01 | 0.00 | 91 | 1019.3 |
| 20260506115919 | 52 | 0 | 0.0 | 0.0 | 0.00 | 0.01 | 0.00 | 91 | 1019.2 |
| 20260506115417 | 52 | 0 | 0.0 | 0.0 | 0.00 | 0.01 | 0.00 | 91 | 1019.2 |
| 20260506114916 | 52 | 0 | 0.0 | 0.0 | 0.00 | 0.01 | 0.00 | 91 | 1019.2 |
| 20260506114456 | 52 | 226 | 0.0 | 1.0 | 0.00 | 0.01 | 0.00 | 91 | 1019.2 |
| 20260506113919 | 52 | 0 | 0.0 | 0.0 | 0.00 | 0.01 | 0.00 | 91 | 1019.2 |
| 20260506113418 | 52 | 0 | 0.0 | 0.0 | 0.00 | 0.01 | 0.00 | 91 | 1019.2 |
| 20260506112917 | 52 | 0 | 0.0 | 0.0 | 0.00 | 0.01 | 0.00 | 91 | 1019.2 |
| 20260506112415 | 52 | 0 | 0.0 | 1.0 | 0.00 | 0.01 | 0.00 | 91 | 1019.1 |
| 20260506111919 | 52 | 0 | 0.0 | 1.0 | 0.00 | 0.01 | 0.00 | 91 | 1019.1 |
| 20260506111417 | 52 | 0 | 0.0 | 1.0 | 0.00 | 0.01 | 0.00 | 91 | 1019.0 |
| 20260506110917 | 52 | 0 | 0.0 | 1.0 | 0.00 | 0.01 | 0.00 | 91 | 1019.0 |
| 20260506110415 | 52 | 0 | 0.0 | 0.0 | 0.00 | 0.01 | 0.00 | 91 | 1019.1 |
| 20260506105920 | 52 | 132 | 0.0 | 1.0 | 0.00 | 0.01 | 0.00 | 91 | 1019.0 |
| 20260506105418 | 52 | 0 | 0.0 | 2.0 | 0.00 | 0.01 | 0.00 | 91 | 1019.0 |
| 20260506104917 | 52 | 0 | 0.0 | 1.0 | 0.00 | 0.01 | 0.00 | 91 | 1018.8 |
| 20260506104436 | 52 | 0 | 0.0 | 0.0 | 0.00 | 0.01 | 0.00 | 91 | 1018.8 |
| 20260506103920 | 52 | 0 | 0.0 | 1.0 | 0.00 | 0.01 | 0.00 | 91 | 1018.8 |
| 20260506103418 | 51 | 0 | 0.0 | 1.0 | 0.00 | 0.01 | 0.00 | 91 | 1018.9 |
| 20260506102917 | 51 | 0 | 0.0 | 1.0 | 0.00 | 0.01 | 0.00 | 91 | 1018.6 |
| 20260506102436 | 51 | 137 | 1.0 | 1.0 | 0.00 | 0.01 | 0.00 | 91 | 1018.8 |
| 20260506101919 | 51 | 216 | 0.0 | 2.0 | 0.00 | 0.01 | 0.00 | 91 | 1018.7 |
| 20260506101418 | 51 | 0 | 0.0 | 1.0 | 0.00 | 0.01 | 0.00 | 91 | 1018.6 |
| 20260506100917 | 51 | 183 | 0.0 | 1.0 | 0.00 | 0.01 | 0.00 | 91 | 1018.7 |
| 20260506100416 | 51 | 0 | 0.0 | 0.0 | 0.00 | 0.01 | 0.00 | 91 | 1018.7 |
| 20260506095919 | 51 | 0 | 0.0 | 0.0 | 0.00 | 0.01 | 0.00 | 91 | 1019.0 |
| 20260506095418 | 51 | 0 | 0.0 | 0.0 | 0.00 | 0.01 | 0.00 | 91 | 1018.6 |
| 20260506094917 | 51 | 0 | 0.0 | 0.0 | 0.00 | 0.01 | 0.00 | 91 | 1018.6 |
| 20260506094436 | 51 | 0 | 0.0 | 1.0 | 0.00 | 0.01 | 0.00 | 91 | 1018.7 |
| 20260506093940 | 51 | 0 | 0.0 | 0.0 | 0.00 | 0.01 | 0.00 | 91 | 1018.8 |
| 20260506093418 | 50 | 204 | 0.0 | 1.0 | 0.00 | 0.01 | 0.00 | 91 | 1018.7 |
| 20260506092916 | 50 | 0 | 0.0 | 0.0 | 0.00 | 0.01 | 0.00 | 91 | 1018.8 |
| 20260506092416 | 50 | 0 | 0.0 | 1.0 | 0.00 | 0.01 | 0.00 | 91 | 1018.7 |
| 20260506091920 | 50 | 0 | 0.0 | 1.0 | 0.00 | 0.01 | 0.00 | 91 | 1018.8 |
| 20260506091419 | 50 | 0 | 0.0 | 0.0 | 0.00 | 0.01 | 0.00 | 91 | 1018.7 |
| 20260506090917 | 50 | 0 | 0.0 | 0.0 | 0.00 | 0.01 | 0.00 | 91 | 1018.8 |
| 20260506090416 | 50 | 212 | 0.0 | 1.0 | 0.00 | 0.02 | 0.00 | 91 | 1018.8 |
| 20260506085920 | 50 | 201 | 0.0 | 1.0 | 0.00 | 0.02 | 0.00 | 91 | 1018.6 |
| 20260506085418 | 50 | 0 | 0.0 | 0.0 | 0.00 | 0.02 | 0.00 | 91 | 1018.9 |
| 20260506083940 | 49 | 0 | 0.0 | 1.0 | 0.00 | 0.03 | 0.00 | 91 | 1018.9 |
| 20260506083418 | 49 | 0 | 0.0 | 0.0 | 0.00 | 0.03 | 0.00 | 91 | 1019.0 |
| 20260506082938 | 49 | 0 | 0.0 | 1.0 | 0.00 | 0.03 | 0.00 | 91 | 1018.9 |
| 20260506082416 | 49 | 0 | 0.0 | 0.0 | 0.00 | 0.03 | 0.00 | 91 | 1018.8 |
| 20260506081940 | 49 | 211 | 0.0 | 1.0 | 0.00 | 0.03 | 0.00 | 91 | 1018.7 |
| 20260506081418 | 48 | 0 | 0.0 | 1.0 | 0.00 | 0.03 | 0.00 | 90 | 1018.8 |
| 20260506080917 | 48 | 0 | 0.0 | 1.0 | 0.00 | 0.04 | 0.00 | 90 | 1018.7 |
| 20260506080437 | 48 | 0 | 0.0 | 0.0 | 0.00 | 0.04 | 0.00 | 90 | 1018.8 |
| 20260506073419 | 48 | 206 | 0.0 | 1.0 | 0.00 | 0.06 | 0.00 | 90 | 1018.5 |
| 20260506072917 | 48 | 230 | 1.0 | 2.0 | 0.00 | 0.07 | 0.00 | 90 | 1018.6 |
| 20260506072416 | 48 | 234 | 0.0 | 1.0 | 0.00 | 0.07 | 0.00 | 90 | 1018.5 |
| 20260506071920 | 48 | 0 | 0.0 | 1.0 | 0.00 | 0.08 | 0.00 | 90 | 1018.4 |
| 20260506071419 | 48 | 213 | 0.0 | 1.0 | 0.00 | 0.08 | 0.00 | 89 | 1018.4 |
| 20260506070917 | 48 | 0 | 0.0 | 1.0 | 0.00 | 0.08 | 0.00 | 89 | 1018.2 |
| 20260506070417 | 48 | 0 | 0.0 | 1.0 | 0.00 | 0.08 | 0.00 | 89 | 1018.6 |
| 20260506062416 | 49 | 0 | 0.0 | 1.0 | 0.00 | 0.08 | 0.08 | 88 | 1018.3 |
| 20260506061941 | 49 | 0 | 0.0 | 1.0 | 0.00 | 0.08 | 0.08 | 88 | 1018.1 |
| 20260506061419 | 49 | 0 | 0.0 | 1.0 | 0.00 | 0.09 | 0.08 | 88 | 1018.2 |
| 20260506060938 | 49 | 0 | 0.0 | 0.0 | 0.00 | 0.09 | 0.08 | 88 | 1018.0 |
| 20260506060416 | 49 | 0 | 0.0 | 1.0 | 0.00 | 0.09 | 0.08 | 88 | 1018.1 |
| 20260506050918 | 50 | 0 | 0.0 | 0.0 | 0.00 | 0.12 | 0.08 | 86 | 1017.8 |
| 20260506050417 | 51 | 0 | 0.0 | 0.0 | 0.00 | 0.12 | 0.08 | 86 | 1017.7 |
| 20260506044918 | 51 | 0 | 0.0 | 0.0 | 0.00 | 0.14 | 0.08 | 86 | 1017.7 |
| 20260506044417 | 51 | 0 | 0.0 | 0.0 | 0.00 | 0.15 | 0.08 | 85 | 1017.6 |
| 20260506043915 | 52 | 0 | 0.0 | 1.0 | 0.00 | 0.17 | 0.08 | 85 | 1017.5 |
| 20260506043440 | 52 | 0 | 0.0 | 0.0 | 0.00 | 0.18 | 0.08 | 85 | 1017.5 |
| 20260506042918 | 52 | 253 | 0.0 | 1.0 | 0.00 | 0.19 | 0.08 | 85 | 1017.5 |
| 20260506042417 | 52 | 0 | 0.0 | 1.0 | 0.00 | 0.19 | 0.08 | 85 | 1017.5 |
| 20260506041916 | 52 | 0 | 0.0 | 1.0 | 0.00 | 0.19 | 0.08 | 84 | 1017.0 |
| 20260506041419 | 53 | 0 | 0.0 | 0.0 | 0.00 | 0.20 | 0.08 | 84 | 1016.9 |
| 20260506040918 | 53 | 217 | 1.0 | 1.0 | 0.00 | 0.21 | 0.08 | 84 | 1017.1 |
| 20260506040437 | 53 | 0 | 0.0 | 0.0 | 0.00 | 0.21 | 0.08 | 83 | 1017.0 |
| 20260506035915 | 53 | 0 | 0.0 | 0.0 | 0.00 | 0.22 | 0.08 | 83 | 1016.8 |
| 20260506035520 | 54 | 0 | 0.0 | 0.0 | 0.00 | 0.22 | 0.08 | 83 | 1016.7 |
| 20260506034938 | 54 | 0 | 0.0 | 0.0 | 0.00 | 0.22 | 0.08 | 83 | 1016.7 |
| 20260506034437 | 54 | 0 | 0.0 | 0.0 | 0.00 | 0.22 | 0.08 | 82 | 1016.6 |
| 20260506033915 | 55 | 194 | 0.0 | 1.0 | 0.00 | 0.22 | 0.08 | 82 | 1016.6 |
| 20260506033418 | 55 | 0 | 0.0 | 2.0 | 0.00 | 0.22 | 0.08 | 82 | 1016.5 |
| 20260506032918 | 55 | 157 | 0.0 | 1.0 | 0.00 | 0.23 | 0.08 | 81 | 1016.4 |
| 20260506032416 | 56 | 144 | 2.0 | 2.0 | 0.00 | 0.23 | 0.08 | 81 | 1016.4 |
| 20260506031915 | 56 | 190 | 2.0 | 2.0 | 0.00 | 0.23 | 0.08 | 81 | 1016.3 |
| 20260506031500 | 56 | 190 | 1.0 | 2.0 | 0.00 | 0.24 | 0.08 | 81 | 1016.3 |
| 20260506030918 | 56 | 189 | 2.0 | 2.0 | 0.00 | 0.24 | 0.08 | 81 | 1016.2 |
| 20260506030417 | 57 | 193 | 2.0 | 2.0 | 0.00 | 0.24 | 0.08 | 81 | 1016.0 |
| 20260506025915 | 57 | 194 | 2.0 | 2.0 | 0.00 | 0.24 | 0.08 | 80 | 1015.8 |
| 20260506025500 | 57 | 193 | 2.0 | 2.0 | 0.00 | 0.25 | 0.08 | 80 | 1015.9 |
| 20260506024918 | 57 | 189 | 2.0 | 2.0 | 0.00 | 0.25 | 0.08 | 80 | 1015.6 |
| 20260506024417 | 57 | 190 | 1.0 | 2.0 | 0.00 | 0.25 | 0.08 | 79 | 1016.0 |
| 20260506023915 | 58 | 193 | 2.0 | 2.0 | 0.00 | 0.25 | 0.08 | 79 | 1015.9 |
| 20260506023419 | 58 | 170 | 1.0 | 2.0 | 0.00 | 0.25 | 0.08 | 78 | 1015.9 |
| 20260506022918 | 58 | 199 | 1.0 | 2.0 | 0.00 | 0.25 | 0.08 | 78 | 1015.9 |
| 20260506022417 | 58 | 163 | 2.0 | 4.0 | 0.00 | 0.25 | 0.08 | 78 | 1015.9 |
| 20260506021915 | 58 | 201 | 2.0 | 4.0 | 0.00 | 0.25 | 0.08 | 78 | 1015.9 |
| 20260506021439 | 58 | 186 | 1.0 | 2.0 | 0.00 | 0.25 | 0.08 | 77 | 1015.4 |
| 20260506020918 | 59 | 187 | 2.0 | 2.0 | 0.00 | 0.25 | 0.08 | 77 | 1015.6 |
| 20260506020417 | 59 | 213 | 0.0 | 2.0 | 0.00 | 0.25 | 0.08 | 77 | 1015.6 |
| 20260506020001 | 59 | 205 | 1.0 | 2.0 | 0.00 | 0.25 | 0.08 | 77 | 1015.6 |
| 20260506015440 | 59 | 206 | 1.0 | 2.0 | 0.00 | 0.25 | 0.08 | 77 | 1015.5 |
| 20260506014918 | 59 | 232 | 1.0 | 2.0 | 0.00 | 0.25 | 0.08 | 76 | 1015.7 |
| 20260506014518 | 59 | 200 | 1.0 | 2.0 | 0.00 | 0.25 | 0.08 | 77 | 1015.4 |
| 20260506013916 | 60 | 214 | 1.0 | 3.0 | 0.00 | 0.26 | 0.08 | 76 | 1015.2 |
| 20260506013420 | 60 | 209 | 1.0 | 2.0 | 0.00 | 0.26 | 0.08 | 77 | 1015.7 |
| 20260506012918 | 60 | 170 | 2.0 | 2.0 | 0.00 | 0.26 | 0.08 | 76 | 1015.4 |
| 20260506012416 | 60 | 191 | 2.0 | 5.0 | 0.00 | 0.26 | 0.08 | 76 | 1015.6 |
| 20260506011915 | 60 | 197 | 1.0 | 3.0 | 0.00 | 0.26 | 0.08 | 76 | 1015.4 |
| 20260506011420 | 60 | 181 | 1.0 | 3.0 | 0.00 | 0.26 | 0.08 | 77 | 1015.5 |
| 20260506010938 | 61 | 146 | 2.0 | 4.0 | 0.00 | 0.26 | 0.08 | 76 | 1015.7 |
| 20260506010417 | 61 | 184 | 2.0 | 2.0 | 0.00 | 0.26 | 0.08 | 76 | 1015.4 |
| 20260506005915 | 61 | 151 | 1.0 | 2.0 | 0.00 | 0.26 | 0.08 | 76 | 1015.3 |
| 20260506005419 | 61 | 193 | 1.0 | 2.0 | 0.00 | 0.26 | 0.08 | 75 | 1015.4 |
| 20260506004918 | 61 | 181 | 2.0 | 3.0 | 0.00 | 0.26 | 0.08 | 75 | 1015.3 |
| 20260506004417 | 61 | 181 | 2.0 | 3.0 | 0.00 | 0.27 | 0.08 | 75 | 1015.2 |
| 20260506003916 | 61 | 197 | 2.0 | 3.0 | 0.00 | 0.27 | 0.08 | 74 | 1015.4 |
| 20260506003419 | 61 | 180 | 2.0 | 3.0 | 0.00 | 0.27 | 0.08 | 75 | 1015.2 |
| 20260506002918 | 61 | 168 | 3.0 | 3.0 | 0.00 | 0.27 | 0.08 | 76 | 1015.2 |
| 20260506002416 | 61 | 182 | 1.0 | 4.0 | 0.00 | 0.27 | 0.08 | 74 | 1015.2 |
| 20260506001915 | 61 | 210 | 2.0 | 3.0 | 0.00 | 0.27 | 0.08 | 74 | 1015.0 |
| 20260506001419 | 61 | 160 | 2.0 | 2.0 | 0.00 | 0.27 | 0.08 | 74 | 1015.0 |
| 20260506000917 | 61 | 185 | 2.0 | 2.0 | 0.00 | 0.27 | 0.08 | 75 | 1015.0 |
| 20260506000417 | 61 | 191 | 2.0 | 3.0 | 0.00 | 0.27 | 0.08 | 74 | 1015.1 |
| 20260505235915 | 61 | 191 | 2.0 | 3.0 | 0.00 | 0.27 | 0.08 | 75 | 1015.1 |
| 20260505235419 | 61 | 174 | 1.0 | 3.0 | 0.00 | 0.27 | 0.08 | 74 | 1015.1 |
| 20260505234938 | 61 | 183 | 2.0 | 3.0 | 0.00 | 0.27 | 0.08 | 75 | 1015.1 |
| 20260505234416 | 61 | 258 | 3.0 | 4.0 | 0.00 | 0.27 | 0.08 | 75 | 1014.9 |
| 20260505233920 | 61 | 184 | 2.0 | 4.0 | 0.00 | 0.27 | 0.08 | 75 | 1015.0 |
| 20260505233439 | 62 | 208 | 2.0 | 4.0 | 0.00 | 0.27 | 0.08 | 74 | 1015.1 |
| 20260505232917 | 62 | 195 | 2.0 | 3.0 | 0.00 | 0.27 | 0.08 | 74 | 1015.1 |
| 20260505232416 | 62 | 134 | 2.0 | 2.0 | 0.00 | 0.27 | 0.08 | 74 | 1015.0 |
| 20260505231916 | 62 | 197 | 1.0 | 2.0 | 0.00 | 0.27 | 0.08 | 73 | 1014.9 |
| 20260505231419 | 62 | 191 | 2.0 | 4.0 | 0.00 | 0.27 | 0.08 | 73 | 1015.0 |
| 20260505230917 | 63 | 197 | 2.0 | 5.0 | 0.00 | 0.27 | 0.08 | 75 | 1014.8 |
| 20260505230417 | 62 | 192 | 2.0 | 3.0 | 0.00 | 0.27 | 0.08 | 74 | 1015.1 |
| 20260505225920 | 63 | 181 | 2.0 | 3.0 | 0.00 | 0.27 | 0.08 | 75 | 1014.9 |
| 20260505225419 | 63 | 143 | 2.0 | 4.0 | 0.00 | 0.27 | 0.08 | 74 | 1014.9 |
| 20260505224917 | 63 | 190 | 2.0 | 3.0 | 0.00 | 0.27 | 0.08 | 74 | 1014.8 |
| 20260505224417 | 63 | 175 | 2.0 | 3.0 | 0.00 | 0.27 | 0.08 | 73 | 1015.0 |
| 20260505223920 | 63 | 182 | 1.0 | 3.0 | 0.00 | 0.27 | 0.08 | 74 | 1015.0 |
| 20260505223419 | 63 | 199 | 2.0 | 3.0 | 0.00 | 0.27 | 0.08 | 73 | 1014.8 |
| 20260505222918 | 63 | 222 | 1.0 | 3.0 | 0.00 | 0.27 | 0.08 | 72 | 1015.0 |
| 20260505222416 | 63 | 180 | 0.0 | 2.0 | 0.00 | 0.27 | 0.08 | 72 | 1015.1 |
| 20260505221920 | 63 | 188 | 2.0 | 2.0 | 0.00 | 0.27 | 0.08 | 73 | 1014.9 |
| 20260505221419 | 63 | 196 | 2.0 | 2.0 | 0.00 | 0.27 | 0.08 | 73 | 1015.2 |
| 20260505220938 | 63 | 193 | 2.0 | 3.0 | 0.00 | 0.27 | 0.08 | 73 | 1015.0 |
| 20260505220417 | 63 | 251 | 2.0 | 3.0 | 0.00 | 0.27 | 0.08 | 73 | 1015.0 |
| 20260505215915 | 63 | 0 | 0.0 | 2.0 | 0.00 | 0.27 | 0.08 | 74 | 1015.1 |
| 20260505215419 | 64 | 174 | 1.0 | 2.0 | 0.00 | 0.27 | 0.08 | 72 | 1015.1 |
| 20260505214918 | 64 | 231 | 1.0 | 2.0 | 0.00 | 0.27 | 0.08 | 72 | 1015.1 |
| 20260505214437 | 64 | 70 | 0.0 | 2.0 | 0.00 | 0.27 | 0.08 | 72 | 1015.1 |
| 20260505213915 | 64 | 0 | 0.0 | 2.0 | 0.00 | 0.27 | 0.08 | 72 | 1015.1 |
| 20260505213419 | 65 | 241 | 2.0 | 3.0 | 0.00 | 0.27 | 0.08 | 70 | 1015.3 |
| 20260505212918 | 65 | 193 | 2.0 | 2.0 | 0.00 | 0.27 | 0.08 | 67 | 1015.1 |
| 20260505212417 | 66 | 163 | 2.0 | 3.0 | 0.00 | 0.27 | 0.08 | 67 | 1015.0 |
| 20260505211916 | 66 | 157 | 4.0 | 5.0 | 0.00 | 0.27 | 0.08 | 65 | 1015.1 |
| 20260505211419 | 67 | 208 | 2.0 | 3.0 | 0.00 | 0.27 | 0.08 | 66 | 1015.2 |
| 20260505210918 | 67 | 142 | 2.0 | 3.0 | 0.00 | 0.27 | 0.08 | 67 | 1015.4 |
| 20260505210416 | 66 | 157 | 2.0 | 3.0 | 0.00 | 0.27 | 0.08 | 72 | 1015.3 |
| 20260505205916 | 64 | 216 | 1.0 | 3.0 | 0.00 | 0.27 | 0.08 | 74 | 1015.1 |
| 20260505205420 | 63 | 213 | 2.0 | 5.0 | 0.00 | 0.27 | 0.08 | 78 | 1015.5 |
| 20260505204918 | 62 | 184 | 2.0 | 3.0 | 0.00 | 0.27 | 0.08 | 77 | 1015.6 |
| 20260505204416 | 62 | 155 | 2.0 | 5.0 | 0.00 | 0.27 | 0.08 | 76 | 1015.4 |
| 20260505203915 | 62 | 156 | 3.0 | 6.0 | 0.00 | 0.27 | 0.08 | 76 | 1015.5 |
| 20260505203419 | 62 | 190 | 2.0 | 3.0 | 0.00 | 0.27 | 0.08 | 77 | 1015.6 |
| 20260505202918 | 62 | 199 | 3.0 | 4.0 | 0.00 | 0.27 | 0.08 | 78 | 1015.5 |
| 20260505202417 | 62 | 214 | 1.0 | 2.0 | 0.00 | 0.27 | 0.08 | 78 | 1015.5 |
| 20260505201915 | 61 | 185 | 2.0 | 3.0 | 0.00 | 0.27 | 0.08 | 78 | 1015.4 |
| 20260505201440 | 61 | 186 | 2.0 | 3.0 | 0.00 | 0.27 | 0.08 | 80 | 1015.2 |
| 20260505200917 | 61 | 196 | 2.0 | 3.0 | 0.00 | 0.27 | 0.08 | 80 | 1015.9 |
| 20260505200416 | 61 | 157 | 3.0 | 3.0 | 0.00 | 0.27 | 0.08 | 80 | 1015.8 |
| 20260505195916 | 61 | 168 | 2.0 | 3.0 | 0.00 | 0.27 | 0.08 | 81 | 1015.7 |
| 20260505195419 | 61 | 195 | 2.0 | 3.0 | 0.00 | 0.27 | 0.08 | 80 | 1015.8 |
| 20260505194918 | 61 | 190 | 2.0 | 4.0 | 0.00 | 0.27 | 0.08 | 80 | 1015.7 |
| 20260505194417 | 60 | 182 | 2.0 | 3.0 | 0.00 | 0.27 | 0.08 | 80 | 1015.6 |
| 20260505193916 | 60 | 170 | 3.0 | 4.0 | 0.00 | 0.27 | 0.08 | 79 | 1015.8 |
| 20260505193419 | 60 | 180 | 1.0 | 3.0 | 0.00 | 0.27 | 0.08 | 82 | 1015.7 |
| 20260505192918 | 60 | 196 | 3.0 | 4.0 | 0.00 | 0.27 | 0.08 | 83 | 1015.9 |
| 20260505192416 | 60 | 219 | 3.0 | 4.0 | 0.00 | 0.27 | 0.08 | 82 | 1015.6 |
| 20260505191917 | 60 | 206 | 3.0 | 4.0 | 0.00 | 0.27 | 0.08 | 81 | 1015.7 |
| 20260505191419 | 60 | 134 | 4.0 | 5.0 | 0.00 | 0.27 | 0.08 | 80 | 1015.7 |
| 20260505190918 | 60 | 165 | 4.0 | 6.0 | 0.00 | 0.27 | 0.08 | 81 | 1015.6 |
| 20260505190417 | 60 | 194 | 3.0 | 4.0 | 0.00 | 0.27 | 0.08 | 83 | 1015.6 |
| 20260505185916 | 59 | 221 | 1.0 | 3.0 | 0.00 | 0.27 | 0.08 | 82 | 1015.7 |
| 20260505185419 | 60 | 225 | 3.0 | 6.0 | 0.00 | 0.27 | 0.08 | 80 | 1015.6 |
| 20260505184919 | 60 | 201 | 2.0 | 4.0 | 0.00 | 0.27 | 0.08 | 80 | 1015.8 |
| 20260505184417 | 60 | 197 | 2.0 | 4.0 | 0.00 | 0.27 | 0.08 | 82 | 1015.7 |
| 20260505183916 | 60 | 192 | 1.0 | 2.0 | 0.00 | 0.27 | 0.08 | 83 | 1015.6 |
| 20260505183420 | 59 | 222 | 3.0 | 4.0 | 0.00 | 0.27 | 0.08 | 86 | 1015.4 |
| 20260505182918 | 58 | 0 | 0.0 | 0.0 | 0.00 | 0.27 | 0.08 | 86 | 1015.6 |
| 20260505182437 | 58 | 0 | 0.0 | 2.0 | 0.00 | 0.27 | 0.08 | 85 | 1015.6 |
| 20260505181915 | 58 | 114 | 2.0 | 5.0 | 0.00 | 0.27 | 0.08 | 83 | 1015.6 |
| 20260505181420 | 58 | 298 | 2.0 | 4.0 | 0.00 | 0.27 | 0.08 | 86 | 1015.7 |
| 20260505180959 | 58 | 198 | 1.0 | 2.0 | 0.00 | 0.27 | 0.08 | 88 | 1015.4 |
| 20260505180417 | 57 | 320 | 2.0 | 3.0 | 0.00 | 0.27 | 0.08 | 88 | 1015.6 |
| 20260505175916 | 57 | 231 | 1.0 | 3.0 | 0.00 | 0.27 | 0.08 | 88 | 1015.5 |
| 20260505175419 | 57 | 343 | 1.0 | 2.0 | 0.00 | 0.27 | 0.08 | 89 | 1015.4 |
| 20260505174918 | 57 | 157 | 1.0 | 2.0 | 0.00 | 0.27 | 0.08 | 90 | 1015.3 |
| 20260505174417 | 57 | 213 | 1.0 | 2.0 | 0.00 | 0.27 | 0.08 | 90 | 1015.4 |
| 20260505173916 | 57 | 210 | 1.0 | 2.0 | 0.00 | 0.27 | 0.08 | 91 | 1015.4 |
| 20260505173420 | 57 | 204 | 1.0 | 2.0 | 0.00 | 0.27 | 0.08 | 90 | 1015.4 |
| 20260505172939 | 57 | 141 | 1.0 | 2.0 | 0.00 | 0.27 | 0.08 | 91 | 1015.3 |
| 20260505172438 | 56 | 189 | 2.0 | 3.0 | 0.00 | 0.27 | 0.08 | 91 | 1015.4 |
| 20260505171916 | 56 | 0 | 1.0 | 2.0 | 0.00 | 0.27 | 0.08 | 92 | 1015.5 |
| 20260505171420 | 56 | 48 | 1.0 | 2.0 | 0.00 | 0.27 | 0.08 | 92 | 1015.3 |
| 20260505170919 | 56 | 174 | 1.0 | 2.0 | 0.00 | 0.27 | 0.08 | 92 | 1015.3 |
| 20260505170417 | 56 | 214 | 1.0 | 2.0 | 0.00 | 0.27 | 0.08 | 93 | 1015.3 |
| 20260505165916 | 56 | 194 | 1.0 | 2.0 | 0.00 | 0.27 | 0.08 | 93 | 1015.4 |
| 20260505165500 | 56 | 189 | 2.0 | 5.0 | 0.00 | 0.27 | 0.08 | 93 | 1015.4 |
| 20260505164919 | 55 | 188 | 2.0 | 2.0 | 0.00 | 0.27 | 0.08 | 93 | 1015.4 |
| 20260505164418 | 55 | 188 | 2.0 | 2.0 | 0.00 | 0.27 | 0.08 | 93 | 1015.4 |
| 20260505163916 | 55 | 153 | 2.0 | 2.0 | 0.00 | 0.27 | 0.08 | 93 | 1015.3 |
| 20260505163420 | 55 | 185 | 2.0 | 2.0 | 0.00 | 0.27 | 0.08 | 93 | 1015.2 |
| 20260505162919 | 55 | 166 | 1.0 | 2.0 | 0.00 | 0.27 | 0.08 | 93 | 1015.2 |
| 20260505162418 | 55 | 178 | 1.0 | 2.0 | 0.00 | 0.27 | 0.08 | 93 | 1015.0 |
| 20260505161936 | 55 | 200 | 3.0 | 4.0 | 0.00 | 0.27 | 0.08 | 94 | 1015.2 |
| 20260505161441 | 54 | 156 | 1.0 | 2.0 | 0.00 | 0.27 | 0.08 | 94 | 1015.2 |
| 20260505160939 | 54 | 152 | 2.0 | 3.0 | 0.00 | 0.27 | 0.08 | 94 | 1015.0 |
| 20260505160418 | 55 | 167 | 1.0 | 2.0 | 0.00 | 0.27 | 0.08 | 94 | 1015.0 |
| 20260505152919 | 54 | 181 | 2.0 | 2.0 | 0.00 | 0.27 | 0.08 | 94 | 1014.8 |
| 20260505152417 | 54 | 177 | 2.0 | 2.0 | 0.00 | 0.27 | 0.08 | 94 | 1014.9 |
| 20260505151917 | 53 | 166 | 1.0 | 2.0 | 0.00 | 0.27 | 0.08 | 94 | 1014.7 |
| 20260505151420 | 53 | 206 | 1.0 | 2.0 | 0.01 | 0.27 | 0.08 | 94 | 1014.6 |
| 20260505150918 | 53 | 153 | 1.0 | 2.0 | 0.01 | 0.27 | 0.08 | 94 | 1014.7 |
| 20260505150438 | 53 | 190 | 1.0 | 1.0 | 0.01 | 0.27 | 0.08 | 94 | 1014.6 |
| 20260505140418 | 52 | 130 | 1.0 | 2.0 | 0.00 | 0.26 | 0.07 | 94 | 1014.7 |